• In Schweiz
  • Länderverzeichnis
  • Für 7 Tage
  • Wassertemperatur
  • Satellitenkarten
  • Wetterkarte
  • Widgets
  • user-avatar
    Anmelden

    Stündliche Wetter Hammerfest

    Heute, 23 November, Donnerstag

    Zeit Temperatur Niederschläge Wind Luftdruck Luftfeuchtigkeit
    00:00 -15°C° 0 mm 6 m/S 766 mmHg 88%
    01:00 -15°C° 0 mm 6 m/S 766 mmHg 89%
    02:00 -15°C° 0 mm 6 m/S 766 mmHg 89%
    03:00 -15°C° 0 mm 6 m/S 766 mmHg 89%
    04:00 -15°C° 0 mm 6 m/S 766 mmHg 90%
    05:00 -15°C° 0 mm 7 m/S 766 mmHg 90%
    06:00 -15°C° 0 mm 7 m/S 765 mmHg 90%
    07:00 -14°C° 0 mm 7 m/S 765 mmHg 90%
    08:00 -15°C° 0 mm 7 m/S 764 mmHg 92%
    09:00 -15°C° 0 mm 7 m/S 764 mmHg 91%
    10:00 -15°C° 0 mm 7 m/S 764 mmHg 91%
    11:00 -15°C° 0 mm 7 m/S 763 mmHg 91%
    12:00 -15°C° 0 mm 7 m/S 763 mmHg 90%
    13:00 -15°C° 0 mm 8 m/S 763 mmHg 89%
    14:00 -15°C° 0 mm 7 m/S 762 mmHg 88%
    15:00 -16°C° 0 mm 8 m/S 762 mmHg 87%
    16:00 -15°C° 0 mm 9 m/S 761 mmHg 86%
    17:00 -15°C° 0 mm 10 m/S 761 mmHg 86%
    18:00 -14°C° 0 mm 11 m/S 760 mmHg 85%
    19:00 -15°C° 0 mm 12 m/S 759 mmHg 83%
    20:00 -13°C° 0 mm 12 m/S 759 mmHg 82%
    21:00 -14°C° 0 mm 13 m/S 758 mmHg 82%
    22:00 -14°C° 0 mm 13 m/S 758 mmHg 83%
    23:00 -14°C° 0 mm 14 m/S 757 mmHg 83%

    Morgen, 24 November, Freitag

    Zeit Temperatur Niederschläge Wind Luftdruck Luftfeuchtigkeit
    00:00 -14°C° 0,1 mm 14 m/S 757 mmHg 83%
    01:00 -13°C° 0,1 mm 15 m/S 756 mmHg 84%
    02:00 -13°C° 0,1 mm 15 m/S 756 mmHg 85%
    03:00 -13°C° 0,1 mm 16 m/S 755 mmHg 85%
    04:00 -13°C° 0,1 mm 16 m/S 755 mmHg 84%
    05:00 -12°C° 0,1 mm 16 m/S 754 mmHg 84%
    06:00 -12°C° 0,1 mm 16 m/S 754 mmHg 85%
    07:00 -12°C° 0,1 mm 16 m/S 753 mmHg 85%
    08:00 -12°C° 0,1 mm 16 m/S 753 mmHg 86%
    09:00 -12°C° 0,2 mm 16 m/S 753 mmHg 86%
    10:00 -12°C° 0,2 mm 15 m/S 752 mmHg 87%
    11:00 -10°C° 0,2 mm 15 m/S 752 mmHg 88%
    12:00 -10°C° 0,2 mm 15 m/S 752 mmHg 88%
    13:00 -10°C° 0,2 mm 14 m/S 751 mmHg 88%
    14:00 -10°C° 0,2 mm 14 m/S 751 mmHg 87%
    15:00 -10°C° 0,2 mm 13 m/S 751 mmHg 88%
    16:00 -10°C° 0,2 mm 13 m/S 750 mmHg 89%
    17:00 -8°C° 0,2 mm 12 m/S 750 mmHg 90%
    18:00 -8°C° 0,1 mm 11 m/S 749 mmHg 89%
    19:00 -8°C° 0,1 mm 11 m/S 749 mmHg 89%
    20:00 -8°C° 0,1 mm 10 m/S 749 mmHg 88%
    21:00 -6°C° 0 mm 9 m/S 748 mmHg 88%
    22:00 -6°C° 0 mm 8 m/S 748 mmHg 87%
    23:00 -5°C° 0 mm 8 m/S 748 mmHg 87%

    übermorgen, 25 November, Samstag

    Zeit Temperatur Niederschläge Wind Luftdruck Luftfeuchtigkeit
    00:00 -4°C° 0,1 mm 7 m/S 747 mmHg 87%
    01:00 -4°C° 0,1 mm 7 m/S 747 mmHg 88%
    02:00 -4°C° 0,1 mm 7 m/S 747 mmHg 88%
    03:00 -3°C° 0 mm 7 m/S 747 mmHg 88%
    04:00 -3°C° 0 mm 7 m/S 747 mmHg 87%
    05:00 -2°C° 0 mm 7 m/S 747 mmHg 86%
    06:00 -4°C° 0 mm 8 m/S 747 mmHg 86%
    07:00 -4°C° 0 mm 8 m/S 747 mmHg 86%
    08:00 -5°C° 0 mm 8 m/S 747 mmHg 85%
    09:00 -5°C° 0 mm 8 m/S 747 mmHg 85%
    10:00 -5°C° 0 mm 8 m/S 747 mmHg 84%
    11:00 -5°C° 0 mm 8 m/S 748 mmHg 83%
    12:00 -6°C° 0 mm 7 m/S 748 mmHg 84%
    13:00 -6°C° 0 mm 7 m/S 748 mmHg 84%
    14:00 -5°C° 0 mm 6 m/S 748 mmHg 84%
    15:00 -5°C° 0 mm 6 m/S 748 mmHg 85%
    16:00 -5°C° 0 mm 6 m/S 747 mmHg 85%
    17:00 -5°C° 0 mm 6 m/S 747 mmHg 85%
    18:00 -5°C° 0 mm 5 m/S 747 mmHg 86%
    19:00 -4°C° 0 mm 4 m/S 746 mmHg 87%
    20:00 -5°C° 0 mm 4 m/S 746 mmHg 87%
    21:00 -5°C° 0 mm 3 m/S 746 mmHg 87%
    22:00 -5°C° 0 mm 3 m/S 745 mmHg 87%
    23:00 -4°C° 0 mm 3 m/S 745 mmHg 88%

    26 November, Sonntag

    Zeit Temperatur Niederschläge Wind Luftdruck Luftfeuchtigkeit
    00:00 -3°C° 0 mm 2 m/S 745 mmHg 87%
    01:00 -3°C° 0 mm 2 m/S 745 mmHg 87%
    02:00 -3°C° 0 mm 2 m/S 744 mmHg 87%
    03:00 -2°C° 0,2 mm 2 m/S 744 mmHg 87%
    04:00 -2°C° 0,2 mm 2 m/S 744 mmHg 87%
    05:00 -2°C° 0,2 mm 3 m/S 744 mmHg 87%
    06:00 -2°C° 0,4 mm 3 m/S 745 mmHg 87%
    07:00 -2°C° 0,4 mm 3 m/S 745 mmHg 87%
    08:00 -2°C° 0,4 mm 3 m/S 745 mmHg 87%
    09:00 -2°C° 0,4 mm 3 m/S 746 mmHg 87%
    10:00 -2°C° 0,4 mm 3 m/S 746 mmHg 88%
    11:00 -1°C° 0,4 mm 2 m/S 747 mmHg 88%
    12:00 -2°C° 0,3 mm 2 m/S 747 mmHg 88%
    13:00 -2°C° 0,3 mm 2 m/S 747 mmHg 88%
    14:00 -2°C° 0,3 mm 3 m/S 747 mmHg 89%
    15:00 -4°C° 0,4 mm 3 m/S 747 mmHg 88%
    16:00 -4°C° 0,4 mm 3 m/S 747 mmHg 88%
    17:00 -5°C° 0,4 mm 3 m/S 747 mmHg 87%
    18:00 -6°C° 0,2 mm 3 m/S 747 mmHg 85%
    19:00 -7°C° 0,2 mm 3 m/S 747 mmHg 83%
    20:00 -8°C° 0,2 mm 4 m/S 747 mmHg 82%
    21:00 -9°C° 0,2 mm 4 m/S 747 mmHg 80%
    22:00 -11°C° 0,2 mm 5 m/S 747 mmHg 78%
    23:00 -11°C° 0,2 mm 5 m/S 747 mmHg 76%

    27 November, Montag

    Zeit Temperatur Niederschläge Wind Luftdruck Luftfeuchtigkeit
    00:00 -11°C° 0 mm 5 m/S 747 mmHg 76%
    01:00 -11°C° 0 mm 5 m/S 747 mmHg 76%
    02:00 -11°C° 0 mm 5 m/S 747 mmHg 76%
    03:00 -11°C° 0 mm 5 m/S 746 mmHg 76%
    04:00 -11°C° 0 mm 5 m/S 746 mmHg 76%
    05:00 -10°C° 0 mm 4 m/S 746 mmHg 76%
    06:00 -10°C° 0 mm 4 m/S 746 mmHg 77%
    07:00 -10°C° 0 mm 4 m/S 746 mmHg 78%
    08:00 -10°C° 0 mm 4 m/S 746 mmHg 79%
    09:00 -10°C° 0 mm 4 m/S 746 mmHg 80%
    10:00 -11°C° 0 mm 5 m/S 747 mmHg 81%
    11:00 -11°C° 0 mm 5 m/S 747 mmHg 82%
    12:00 -11°C° 0 mm 5 m/S 747 mmHg 83%
    13:00 -11°C° 0 mm 5 m/S 747 mmHg 83%
    14:00 -11°C° 0 mm 5 m/S 748 mmHg 84%
    15:00 -11°C° 0,1 mm 5 m/S 748 mmHg 83%
    16:00 -11°C° 0,1 mm 5 m/S 748 mmHg 83%
    17:00 -11°C° 0,1 mm 5 m/S 748 mmHg 82%
    18:00 -10°C° 0,1 mm 5 m/S 748 mmHg 82%
    19:00 -10°C° 0,1 mm 5 m/S 749 mmHg 82%
    20:00 -8°C° 0,1 mm 5 m/S 749 mmHg 82%
    21:00 -8°C° 0,2 mm 4 m/S 749 mmHg 84%
    22:00 -7°C° 0,2 mm 4 m/S 749 mmHg 85%
    23:00 -5°C° 0,2 mm 4 m/S 749 mmHg 87%

    28 November, Dienstag

    Zeit Temperatur Niederschläge Wind Luftdruck Luftfeuchtigkeit
    00:00 -5°C° 0,3 mm 4 m/S 750 mmHg 89%
    01:00 -5°C° 0,3 mm 5 m/S 750 mmHg 90%
    02:00 -4°C° 0,3 mm 5 m/S 750 mmHg 91%
    03:00 -4°C° 0,3 mm 5 m/S 750 mmHg 91%
    04:00 -3°C° 0,3 mm 6 m/S 750 mmHg 91%
    05:00 -2°C° 0,3 mm 6 m/S 751 mmHg 91%
    06:00 -2°C° 0,2 mm 6 m/S 751 mmHg 89%
    07:00 -2°C° 0,2 mm 6 m/S 751 mmHg 87%
    08:00 -2°C° 0,2 mm 6 m/S 751 mmHg 85%
    09:00 -2°C° 0,2 mm 6 m/S 752 mmHg 84%
    10:00 -3°C° 0,2 mm 6 m/S 752 mmHg 84%
    11:00 -3°C° 0,2 mm 6 m/S 752 mmHg 84%
    12:00 -2°C° 0,2 mm 5 m/S 752 mmHg 84%
    13:00 -2°C° 0,2 mm 5 m/S 753 mmHg 84%
    14:00 -3°C° 0,2 mm 4 m/S 753 mmHg 84%
    15:00 -3°C° 0,1 mm 4 m/S 753 mmHg 85%
    16:00 -2°C° 0,1 mm 3 m/S 753 mmHg 86%
    17:00 -2°C° 0,1 mm 3 m/S 753 mmHg 87%
    18:00 -2°C° 0,1 mm 3 m/S 753 mmHg 87%
    19:00 -2°C° 0,1 mm 2 m/S 753 mmHg 87%
    20:00 -2°C° 0,1 mm 2 m/S 753 mmHg 87%
    21:00 -3°C° 0 mm 2 m/S 753 mmHg 87%
    22:00 -3°C° 0 mm 2 m/S 754 mmHg 88%
    23:00 -3°C° 0 mm 2 m/S 754 mmHg 88%
    Mehr zeigen